Tracking 17855 objects as of 25-September-2016
HD Live streaming from Space Station
objects crossing your sky now

COSMOS 2418 (GLONASS)

Track COSMOS 2418 (GLONASS) now!
COSMOS 2418 (GLONASS) is classified as:


NORAD ID: 28916
Int'l Code: 2005-050B
Perigee: 19,103.8 km
Apogee: 19,170.5 km
Inclination: 65.4 °
Period: 675.7 minutes
Semi major axis: 25508 km
RCS: 3.9905 m2 (large)
Launch date: December 25, 2005
Source: Commonwealth of Independent States (former USSR) (CIS)
Launch site: TYURATAM MISSILE AND SPACE COMPLEX (TTMTR)
SV:
Your satellite tracking list
Your tracking list is empty





NASA's NSSDC Master Catalog

Two Line Element Set (TLE):
1 28916U 05050B   16268.85686360  .00000033  00000-0  00000+0 0  9996
2 28916  65.3872  74.8881 0013072 334.1028 347.5773  2.13104633 83672
Source of the keplerian elements: AFSPC

N2YO: 490